Terminal Aerodrome Forecast
Issued by NWS

Home | Current Version | Previous Version | Text Only | Print | Product List | Glossary On
Versions: 1 2 3 4 5 6 7 8 9 10 11 12 13 14 15
000
FTUS44 KEPZ 210500
TAFDMN
TAF
KDMN 210530Z 2106/2206 27010KT P6SM FEW200
     FM212000 22007KT P6SM VCTS SCT070CB SCT250
     FM220300 24010KT P6SM SCT090 SCT250=

USA.gov is the U.S. government's official web portal to all federal, state and local government web resources and services.